This is the latest recevied weather packets stored in our database for station/object DO1SC. If no packets are shown the sender has not sent any weather packets the latest 10 day(s).
| Time | Temp. | Humidity | Pressure | Rain* | Wind** | Luminosity | Snow |
|---|---|---|---|---|---|---|---|
| 1777806934 | 22.78° C | 30% | 1015.9 hPa | - | - | 588 W/m² | - |
| 1777806326 | 22.78° C | 30% | 1016 hPa | - | - | 532 W/m² | - |
| 1777805718 | 23.33° C | 29% | 1016.1 hPa | - | - | 570 W/m² | - |
| 1777805132 | 23.33° C | 30% | 1016.1 hPa | - | - | 616 W/m² | - |
| 1777804521 | 22.78° C | 30% | 1016.3 hPa | - | - | 561 W/m² | - |
| 1777803936 | 23.33° C | 30% | 1016.3 hPa | - | - | 551 W/m² | - |
| 1777803324 | 23.33° C | 28% | 1016.4 hPa | - | - | 502 W/m² | - |
| 1777802736 | 23.33° C | 27% | 1016.4 hPa | - | - | 474 W/m² | - |
| 1777802130 | 22.78° C | 28% | 1016.4 hPa | - | - | 480 W/m² | - |
| 1777801519 | 23.33° C | 27% | 1016.6 hPa | - | - | 481 W/m² | - |
| 1777800934 | 22.78° C | 28% | 1016.5 hPa | - | - | 606 W/m² | - |
| 1777800321 | 22.78° C | 28% | 1016.7 hPa | - | - | 553 W/m² | - |
| 1777799733 | 22.78° C | 28% | 1016.7 hPa | - | - | 528 W/m² | - |
| 1777799124 | 22.22° C | 29% | 1016.7 hPa | - | - | 547 W/m² | - |
| 1777798536 | 22.22° C | 29% | 1016.8 hPa | - | - | 523 W/m² | - |
| 1777797928 | 22.22° C | 30% | 1016.8 hPa | - | - | 270 W/m² | - |
| 1777797323 | 21.11° C | 30% | 1016.9 hPa | - | - | 478 W/m² | - |
| 1777796732 | 20.56° C | 31% | 1017 hPa | - | - | 459 W/m² | - |
| 1777796122 | 20.56° C | 31% | 1017 hPa | - | - | 426 W/m² | - |
| 1777795538 | 20.56° C | 30% | 1017.1 hPa | - | - | 427 W/m² | - |
| 1777794926 | 20.56° C | 31% | 1017 hPa | - | - | 393 W/m² | - |
| 1777794318 | 20° C | 30% | 1017.1 hPa | - | - | 365 W/m² | - |
| 1777793730 | 20° C | 31% | 1017.1 hPa | - | - | 336 W/m² | - |
| 1777793120 | 19.44° C | 32% | 1017.1 hPa | - | - | 331 W/m² | - |
| 1777792532 | 18.89° C | 33% | 1017 hPa | - | - | 287 W/m² | - |
* Rain since midnight (hover to see other rain measurements)
** Current wind speed in m/s (hover to see current wind gust speed)